Clinton, NC

10:54 PM EDT on March 23, 2017 (GMT -0400)
Sampson County

Weather History for KCTZ - March, 2013

Change the Weather History Date:

Wednesday, March 6, 2013

  Actual Average (KFAY) Record (KFAY)
Temperature  
Mean Temperature 50 °F -  
Max Temperature 58 °F 64 °F 86 °F (1918)
Min Temperature 41 °F 40 °F 19 °F (1960)
Degree Days  
Heating Degree Days 16    
Moisture  
Dew Point 34 °F    
Average Humidity 61    
Maximum Humidity 93    
Minimum Humidity 42    
Precipitation  
Precipitation 0.03 in - - ()
Sea Level Pressure  
Sea Level Pressure 29.73 in    
Wind  
Wind Speed 13 mph (WNW)    
Max Wind Speed 23 mph    
Max Gust Speed 37 mph    
Visibility 10 miles    
Events Rain    
Averages and records for this station are not official NWS values.
T = Trace of Precipitation, MM = Missing Value Source: NWS Daily Summary

Daily Weather History Graph

Daily Weather History Graph

Search for Another Location

Airport or City:

Trip Planner

Search our weather history database for the weather conditions in past years. The results will help you decide how hot, cold, wet, or windy it might be!

Date:

Astronomy

Mar. 06, 2013 Rise Set
Actual Time 6:36 AM EST 6:13 PM EST
Civil Twilight 6:10 AM EST 6:39 PM EST
Nautical Twilight 5:41 AM EST 7:08 PM EST
Astronomical Twilight 5:12 AM EST 7:37 PM EST
Moon 2:33 AM EST (3/6) 1:02 PM EST (3/6)
Length of Visible Light 12h 28m
Length of Day
11h 37m
Waning Crescent, 30% of the Moon is Illuminated
Mar 6
Waning Crescent
Mar 11
New
Mar 19
First Quarter
Mar 27
Full
Apr 3
Last Quarter

Hourly Weather History & Observations

Time (EST) Temp. Windchill Dew Point Humidity Pressure Visibility Wind Dir Wind Speed Gust Speed Precip Events Conditions
12:15 AM 57.2 °F - 52.7 °F 85% 29.59 in 10.0 mi SSW 5.8 mph - N/A   Overcast
12:35 AM 57.4 °F - 52.9 °F 85% 29.57 in 10.0 mi SSW 6.9 mph - N/A   Overcast
12:55 AM 58.3 °F - 52.9 °F 82% 29.56 in 10.0 mi SSW 8.1 mph 17.3 mph N/A   Scattered Clouds
1:15 AM 58.1 °F - 52.3 °F 81% 29.56 in 10.0 mi SW 10.4 mph 18.4 mph 0.01 in   Scattered Clouds
1:35 AM 57.7 °F - 52.0 °F 81% 29.55 in 10.0 mi SW 10.4 mph 17.3 mph 0.01 in   Scattered Clouds
1:55 AM 57.4 °F - 51.4 °F 81% 29.55 in 10.0 mi SW 15.0 mph 21.9 mph 0.01 in   Mostly Cloudy
2:15 AM 56.8 °F - 50.2 °F 78% 29.54 in 10.0 mi WSW 18.4 mph 27.6 mph N/A   Overcast
2:35 AM 55.8 °F - 48.4 °F 76% 29.54 in 10.0 mi WSW 20.7 mph 29.9 mph N/A   Overcast
2:55 AM 54.7 °F - 46.4 °F 74% 29.54 in 10.0 mi WSW 20.7 mph 31.1 mph N/A   Mostly Cloudy
3:15 AM 53.8 °F - 45.9 °F 75% 29.54 in 10.0 mi WSW 15.0 mph 24.2 mph N/A   Mostly Cloudy
3:35 AM 52.7 °F - 44.2 °F 73% 29.54 in 10.0 mi WSW 13.8 mph 27.6 mph N/A   Mostly Cloudy
3:55 AM 51.6 °F - 42.1 °F 70% 29.54 in 10.0 mi WSW 20.7 mph 27.6 mph N/A   Scattered Clouds
4:15 AM 50.9 °F - 42.1 °F 72% 29.55 in 10.0 mi West 13.8 mph 23.0 mph N/A   Mostly Cloudy
4:35 AM 48.9 °F - 42.1 °F 77% 29.57 in 10.0 mi West 15.0 mph 26.5 mph N/A Rain Rain
4:55 AM 47.1 °F - 40.8 °F 79% 29.58 in 10.0 mi West 13.8 mph 28.8 mph N/A   Overcast
5:15 AM 45.0 °F 38.9 °F 41.5 °F 88% 29.59 in 10.0 mi West 12.7 mph 19.6 mph N/A Rain Light Rain
5:35 AM 43.7 °F 37.3 °F 40.5 °F 88% 29.61 in 7.0 mi West 12.7 mph 25.3 mph N/A   Heavy Drizzle
5:55 AM 41.2 °F 33.7 °F 39.4 °F 93% 29.62 in 5.0 mi West 13.8 mph 27.6 mph 0.02 in Rain Rain
6:15 AM 41.4 °F 35.7 °F 39.2 °F 92% 29.62 in 10.0 mi West 9.2 mph 16.1 mph N/A   Overcast
6:35 AM 41.9 °F 36.3 °F 37.4 °F 84% 29.63 in 10.0 mi WNW 9.2 mph 19.6 mph N/A   Overcast
6:55 AM 41.0 °F 34.3 °F 33.8 °F 76% 29.63 in 10.0 mi West 11.5 mph 20.7 mph N/A   Mostly Cloudy
7:15 AM 41.4 °F 34.0 °F 32.5 °F 71% 29.64 in 10.0 mi West 13.8 mph 23.0 mph N/A   Overcast
7:35 AM 41.9 °F 36.9 °F 31.8 °F 67% 29.65 in 10.0 mi West 8.1 mph 19.6 mph N/A   Overcast
7:55 AM 42.3 °F 35.5 °F 31.5 °F 66% 29.66 in 10.0 mi West 12.7 mph 19.6 mph N/A   Overcast
8:15 AM 42.3 °F 35.1 °F 29.1 °F 60% 29.67 in 10.0 mi West 13.8 mph 23.0 mph N/A   Overcast
8:35 AM 43.3 °F 37.2 °F 27.7 °F 54% 29.67 in 10.0 mi West 11.5 mph 25.3 mph N/A   Mostly Cloudy
8:55 AM 42.8 °F 35.8 °F 26.4 °F 52% 29.67 in 10.0 mi West 13.8 mph 25.3 mph N/A   Overcast
9:15 AM 42.8 °F 34.5 °F 26.1 °F 52% 29.68 in 10.0 mi West 18.4 mph 31.1 mph N/A   Overcast
9:35 AM 44.2 °F 36.7 °F 26.2 °F 49% 29.68 in 10.0 mi WNW 17.3 mph 26.5 mph N/A   Mostly Cloudy
9:55 AM 43.7 °F 37.3 °F 26.2 °F 50% 29.68 in 10.0 mi West 12.7 mph 28.8 mph N/A   Mostly Cloudy
10:15 AM 44.6 °F 36.4 °F 26.1 °F 48% 29.69 in 10.0 mi West 20.7 mph 27.6 mph N/A   Scattered Clouds
10:35 AM 43.9 °F 36.5 °F 25.5 °F 48% 29.69 in 10.0 mi West 16.1 mph 29.9 mph N/A   Mostly Cloudy
10:55 AM 45.0 °F 37.4 °F 25.9 °F 47% 29.70 in 10.0 mi West 18.4 mph 26.5 mph N/A   Overcast
11:15 AM 45.3 °F 37.8 °F 26.1 °F 47% 29.70 in 10.0 mi WNW 18.4 mph 29.9 mph N/A   Overcast
11:35 AM 46.0 °F 38.0 °F 25.9 °F 45% 29.70 in 10.0 mi West 21.9 mph 29.9 mph N/A   Overcast
11:55 AM 45.7 °F 38.6 °F 25.7 °F 46% 29.71 in 10.0 mi WNW 17.3 mph 28.8 mph N/A   Overcast
12:15 PM 46.8 °F - 25.9 °F 44% 29.70 in 10.0 mi WNW 16.1 mph 29.9 mph N/A   Mostly Cloudy
12:35 PM 46.4 °F 39.2 °F 26.1 °F 45% 29.71 in 10.0 mi West 18.4 mph 32.2 mph N/A   Overcast
12:55 PM 46.8 °F - 25.9 °F 44% 29.70 in 10.0 mi WNW 18.4 mph 26.5 mph N/A   Overcast
1:15 PM 46.6 °F - 25.5 °F 44% 29.70 in 10.0 mi West 19.6 mph 31.1 mph N/A   Overcast
1:35 PM 48.0 °F - 26.6 °F 43% 29.70 in 10.0 mi NW 18.4 mph 28.8 mph N/A   Overcast
1:55 PM 48.7 °F - 26.4 °F 42% 29.70 in 10.0 mi WNW 20.7 mph 33.4 mph N/A   Overcast
2:15 PM 48.2 °F - 26.2 °F 42% 29.71 in 10.0 mi WNW 19.6 mph 27.6 mph N/A   Overcast
2:35 PM 48.2 °F - 26.2 °F 42% 29.71 in 10.0 mi WNW 23.0 mph 36.8 mph N/A   Overcast
2:55 PM 47.8 °F - 26.8 °F 44% 29.72 in 10.0 mi WNW 15.0 mph 31.1 mph N/A   Overcast
3:15 PM 48.4 °F - 27.3 °F 44% 29.73 in 10.0 mi WNW 15.0 mph 33.4 mph N/A   Overcast
3:35 PM 50.0 °F - 28.0 °F 43% 29.74 in 10.0 mi WNW 21.9 mph 32.2 mph N/A   Mostly Cloudy
3:55 PM 48.7 °F - 27.9 °F 44% 29.75 in 10.0 mi WNW 18.4 mph 34.5 mph N/A   Overcast
4:15 PM 47.8 °F - 28.0 °F 46% 29.77 in 10.0 mi WNW 12.7 mph 28.8 mph N/A   Overcast
4:35 PM 47.7 °F - 28.4 °F 47% 29.78 in 10.0 mi WNW 10.4 mph 29.9 mph N/A   Overcast
4:55 PM 48.2 °F - 28.4 °F 46% 29.80 in 10.0 mi NW 12.7 mph 23.0 mph N/A   Overcast
5:15 PM 47.7 °F - 29.7 °F 50% 29.81 in 10.0 mi WNW 12.7 mph 20.7 mph N/A   Overcast
5:35 PM 47.8 °F - 30.2 °F 50% 29.83 in 10.0 mi NW 10.4 mph 21.9 mph N/A   Overcast
5:55 PM 48.2 °F - 31.3 °F 52% 29.85 in 10.0 mi NW 12.7 mph 23.0 mph N/A   Overcast
6:15 PM 48.2 °F - 32.0 °F 54% 29.87 in 10.0 mi NNW 15.0 mph 25.3 mph N/A   Overcast
6:35 PM 47.7 °F - 32.9 °F 57% 29.89 in 10.0 mi NNW 10.4 mph 23.0 mph N/A   Overcast
6:55 PM 47.5 °F - 33.3 °F 58% 29.90 in 10.0 mi NNW 11.5 mph 21.9 mph N/A   Overcast
7:15 PM 46.8 °F - 33.8 °F 61% 29.91 in 10.0 mi North 10.4 mph 26.5 mph N/A   Overcast
7:35 PM 46.6 °F - 34.2 °F 62% 29.93 in 10.0 mi NNW 9.2 mph 17.3 mph N/A   Overcast
7:55 PM 46.6 °F - 34.0 °F 62% 29.93 in 10.0 mi NNW 8.1 mph - N/A   Overcast
8:15 PM 46.6 °F - 34.0 °F 62% 29.94 in 10.0 mi NW 5.8 mph - N/A   Overcast
8:35 PM 46.4 °F 42.9 °F 32.2 °F 58% 29.95 in 10.0 mi NW 6.9 mph 16.1 mph N/A   Overcast
8:55 PM 46.4 °F 41.9 °F 32.0 °F 57% 29.96 in 10.0 mi NNW 9.2 mph 18.4 mph N/A   Overcast
9:35 PM 46.2 °F 40.8 °F 32.0 °F 58% 29.98 in 10.0 mi NNW 11.5 mph 18.4 mph N/A   Overcast
9:55 PM 45.0 °F 39.3 °F 34.0 °F 65% 29.98 in 10.0 mi North 11.5 mph 18.4 mph N/A   Overcast
10:15 PM 44.2 °F 39.7 °F 33.1 °F 65% 29.99 in 10.0 mi North 8.1 mph 17.3 mph N/A   Scattered Clouds
10:35 PM 43.7 °F 37.3 °F 32.0 °F 63% 30.00 in 10.0 mi North 12.7 mph 20.7 mph N/A   Mostly Cloudy
10:55 PM 43.7 °F 38.6 °F 31.1 °F 61% 30.00 in 10.0 mi NNW 9.2 mph 21.9 mph N/A   Scattered Clouds
11:15 PM 43.2 °F 38.4 °F 31.1 °F 62% 30.00 in 10.0 mi NNW 8.1 mph 17.3 mph N/A   Clear
11:35 PM 42.8 °F 37.5 °F 31.1 °F 63% 30.00 in 10.0 mi NW 9.2 mph - N/A   Clear
11:55 PM 41.9 °F 37.5 °F 31.6 °F 67% 30.00 in 10.0 mi NW 6.9 mph - N/A   Clear